Regional Weather Roundup
Issued by NWS Newport/Morehead, NC

Current Version | Previous Version | Text Only | Print | Product List | Glossary On
Versions: 1 2 3 4 5 6 7 8 9 10 11 12 13 14 15 16 17 18 19 20 21 22 23 24 25 26 27 28 29 30 31 32 33 34 35 36 37 38 39 40 41 42 43 44 45 46 47 48 49 50
454
ASUS42 KMHX 240413
RWRMHX
WEATHER ROUNDUP FOR EASTERN NORTH CAROLINA
NATIONAL WEATHER SERVICE NEWPORT/MOREHEAD CITY NC
1200 AM EDT TUE MAY 24 2016

NOTE: "FAIR" INDICATES FEW OR NO CLOUDS BELOW 12,000 FEET
WITH NO SIGNIFICANT WEATHER AND/OR OBSTRUCTIONS TO VISIBILITY

NCZ015>017-031-032-045>047-102-103-240500-
NORTH COAST

CITY           SKY/WX    TMP DP  RH WIND       PRES   REMARKS
EDENTON        CLOUDY    61  51  70 W5        30.00S
ELIZABETH CITY CLOUDY    57  55  93 W6        29.98S
KITTY HAWK     MOCLDY    59  50  73 CALM      29.97S
MANTEO         PTCLDY    59  56  87 N6        29.98S

$$

NCZ045>047-081-094-103-104-240500-
CENTRAL COAST

CITY           SKY/WX    TMP DP  RH WIND       PRES   REMARKS
FRISCO         CLEAR     61  53  75 NW9       29.99S

$$

NCZ095-097-098-100-101-240500-
SOUTHERN COAST

CITY           SKY/WX    TMP DP  RH WIND       PRES   REMARKS
BEAUFORT       CLOUDY    61  57  87 NW8       30.03R
CEDAR ISLAND   NOT AVBL
JACKSONVILLE   CLEAR     57  54  89 W5        30.03S
PINEY ISLAND   CLEAR    N/A N/A N/A NW6       30.01S
WILMINGTON     PTCLDY    56  53  90 CALM      30.05R


$$

NCZ011>013-027>030-043-044-078>080-089-090>093-098-240500-
COASTAL PLAIN

CITY           SKY/WX    TMP DP  RH WIND       PRES   REMARKS
AHOSKIE        CLOUDY    55  53  94 CALM      30.01R
CLINTON        CLEAR     55  55 100 CALM      30.06R
ELIZABETHTOWN  CLEAR     57  55  92 CALM      30.05S
GOLDSBORO      CLEAR     54  54 100 SW2       30.02S
GREENVILLE     CLEAR     52  52 100 CALM      30.03S FOG
HAVELOCK       MOCLDY    56  54  93 W5        30.04R
KENANSVILLE    CLEAR     51  50  97 CALM      30.06R
KINSTON        CLEAR     51  51  98 SW3       30.04S
NEW BERN       CLEAR     56  53  90 S5        30.04R
RICHLANDS      CLEAR     52  52 100 CALM      30.05R
ROCKY MOUNT    PTCLDY    51  51 100 CALM      30.03R
WASHINGTON     CLEAR     55  53  94 W5        30.01S
WHITEVILLE     CLEAR     56  55  94 CALM      30.05R

$$

AMZ130-135-150-152-154-156-158-170-250-252-270-ANZ085-086-088-633-658-670-240500-
MARINE OBSERVATIONS

STATION/POSITION TIME  TEMP    WIND        PRES    WAVE   SWELL
                       AIR SEA DIR/SP/G            HT/PER HT/PER
                 (UTC) (F)     (DEG/KT/KT) (MB)    (FT/S) (FT/S)
CHESAPEAKE LIGHT 0400   58     340/  3/  3 1015.2
64 E VA BEACH    0350   57 69  330/ 14/ 17 1013.3    7/ 9   5/ 9
DUCK             0300      62                N/A
2 E DUCK         0311      62                N/A     5/ 9   2/11
OREGON INLET     0300      65                N/A
13E OREGON INLT  0400      62                N/A     5/ 8   5/ 8
HATTERAS CG      0300      68                N/A
DIAMOND BUOY     0350   63 66  330/ 14/ 16 1015.4    4/ 9   3/ 9
CAPE LOOKOUT     0400   62     310/  7/  9 1016.3
BEAUFORT LAB     0300      67                N/A
30 SE NEW RVR IN 0325      73                N/A     3/ 9
27 SE WRIGHTSVLE 0308   67 72  360/ 10/ 14 1016.2
5 SE WRIGHTSVLE  0308   65 72  330/ 10/ 14 1017.4
225 S CAPE HAT   0350   74 77  290/  8/ 12 1016.4    4/ 6   5/ 6
41 SE CHARLESTON 0350   72 75  350/ 10/ 12 1017.1    2/ 9   2/ 9

$$




USA.gov is the U.S. government's official web portal to all federal, state and local government web resources and services.